Regional Weather Roundup
Issued by NWS Charleston, SC

Current Version | Previous Version | Graphics & Text | Print | Product List | Glossary On
Versions: 1 2 3 4 5 6 7 8 9 10 11 12 13 14 15 16 17 18 19 20 21 22 23 24 25 26 27 28 29 30 31 32 33 34 35 36 37 38 39 40 41 42 43 44 45 46 47 48 49 50
000 ASUS42 KCHS 231710 RWRCHS REGIONAL WEATHER ROUNDUP NATIONAL WEATHER SERVICE CHARLESTON SC 1200 PM EST SUN NOV 23 2014 NOTE: "FAIR" INDICATES FEW OR NO CLOUDS BELOW 12,000 FEET WITH NO SIGNIFICANT WEATHER AND/OR OBSTRUCTIONS TO VISIBILITY. NOT ALL STATIONS ARE QUALITY CONTROLLED BY THE NATIONAL WEATHER SERVICE. USE DATA WITH CAUTION...ESPECIALLY DEWPOINT OBSERVATIONS. SCZ027-030-031-034>040-042>050-231800- ...SOUTHEAST SOUTH CAROLINA... CITY SKY/WX TMP DP RH WIND PRES REMARKS N CHARLESTON LGT RAIN 64 63 94 E13 30.03F WATERFRONT PRK N/A 63 N/A N/A E17 N/A MOUNT PLEASANT CLOUDY 63 63 100 E7 30.04F JOHNS ISLAND DRIZZLE 64 64 100 E13G22 30.04F PINOPOLIS N/A N/A N/A N/A E8G16 29.96F MONCKS CORNER N/A 64 64 100 E7G17 30.03F FOG SUMMERVILLE LGT RAIN 63 63 100 E8G16 30.04F BEAUFORT MCAS RAIN 64 62 93 E8 30.01F FOG BEAUFORT ARPT LGT RAIN 63 63 100 E7 30.01F HILTON HEAD IS LGT RAIN 63 63 100 E6 30.02F WALTERBORO RAIN 64 N/A N/A E9 30.03F ALLENDALE DRIZZLE 61 61 100 E7 30.01F ...SOUTHERN MIDLANDS AND PEE DEE... CITY SKY/WX TMP DP RH WIND PRES REMARKS GEORGETOWN NOT AVBL KINGSTREE NOT AVBL ORANGEBURG LGT RAIN 60 57 89 E7 30.03F FOG BARNWELL N/A 59 59 100 E10 30.02F AIKEN RAIN 55 55 100 E8G16 30.05F MANNING NOT AVBL COLUMBIA HVY RAIN 56 54 93 E8 30.04F FOG SUMTER LGT RAIN 57 57 100 VRB6G21 30.02F FOG FLORENCE LGT RAIN 61 58 90 E9 30.07F MYRTLE BEACH LGT RAIN 61 57 88 E15G22 30.08F N MYRTLE BEACH LGT RAIN 61 58 90 E14 30.08F $$ GAZ063-065-086>088-099>101-113>116-118-119-134>141-150-231800- ...SOUTHEAST GEORGIA... CITY SKY/WX TMP DP RH WIND PRES REMARKS SAVANNAH ARPT LGT RAIN 66 63 90 VRB5 30.00F VSB 1 HUNTER AAF LGT RAIN 64 64 100 SE6 29.96F FOG FORT STEWART LGT RAIN 66 65 95 E6 29.96F FOG STATESBORO NOT AVBL SYLVANIA LGT RAIN 62 61 97 SE10G16 30.00F CLAXTON LGT RAIN 64 64 100 E6 29.97F ...CSRA...CENTRAL AND FAR SOUTHEAST GEORGIA... CITY SKY/WX TMP DP RH WIND PRES REMARKS THOMSON CLOUDY 59 59 100 E3 30.03F AUGUSTA-BUSH LGT RAIN 58 57 97 E7 29.99F FOG AUGUSTA-DANIEL LGT RAIN 58 56 93 E12 29.99F FOG SWAINSBORO RAIN 63 63 100 S6 29.98F VIDALIA LGT RAIN 63 63 100 E12 29.96F HAZLEHURST CLOUDY 66 66 100 CALM 29.93F FOG ALMA CLOUDY 69 68 96 SE6 29.94F FOG WAYCROSS RAIN 76 73 92 S9 29.94F JESUP CLOUDY 72 72 100 SE5 29.96F BAXLEY CLOUDY 70 68 94 SE5 29.94F FOG BRUNSWICK CLOUDY 70 68 94 SE3 29.98F SAINT SIMONS CLOUDY 68 68 100 SE5 29.97F $$ SCZ027-028-034-036>038-045-046-048>050-GAZ119-141-231800- ...LAKE AND SUPPLEMENTAL COASTAL OBSERVATIONS... STATION/POSITION TIME TEMP WIND PRES WAVE SWELL AIR SEA DIR/SP/G HT/PER HT/PER/DIR (UTC) (F) (DEG/KT/KT) (MB) (FT/S) (FT/S/D) UPR LAKE MARION NOT AVBL WINYAH BAY 1600 60 60/ 16 1020.0S LAKE MURRAY 1600 54 50/ 3/ 6 1017.9F ACE BASIN NERRS 1600 61 60/ 4 1018.0S FORT PULASKI 1700 60 90/ 11/ 14 1016.5R SAPELO ISLAND NOT AVBL $$ ANZ835-935-AMZ111-154-330-350-352-354-370-450-454-472-231800- ...C-MAN AND BUOY OBSERVATIONS... STATION/POSITION TIME TEMP WIND PRES WAVE SWELL AIR SEA DIR/SP/G HT/PER HT/PER/DIR (UTC) (F) (DEG/KT/KT) (MB) (FT/S) (FT/S/D) FOLLY BEACH CMAN 1600 62 100/ 12/ 14 1019.2F BUOY 41004 1700 69 75 110/ 31/ 39 1014.4F 8/ 7 2/15 BUOY 41008 1700 68 64 190/ 8/ 8 1015.2F 7/ 8 7/110/ 8 CAPERS NEARSHORE 1600 62 110/ 19/ 23 N/A FRIPP NEARSHORE NOT AVBL STATION/POSITION TIME TEMP WIND PRES WAVE SWELL AIR SEA DIR/SP/G HT/PER HT/PER/DIR (UTC) (F) (DEG/KT/KT) (MB) (FT/S) (FT/S/D) 5E ST. MARYS GA 1700 62 N/A 6/ 8 2/110/11 FRYING PAN BUOY 1700 67 66 130/ 16/ 21 1021.3F 5/ 5 2/140/ 8 BUOY 41025 1700 70 150/ 12/ 14 1023.6F 3/ 8 2/ 70/ 8 CAPE LOOKOUT NC 1600 63 160/ 8/ 8 1023.5F BUOY 41002 1633 72 73 140/ 16/ 19 1023.3F 5/ 8 2/ 90/ 8 BUOY 41010 1700 77 78 160/ 21/ 25 1017.0F 11/ 9 ST AUGUSTINE FL 1700 68 150/ 11/ 12 1015.0F $$

USA.gov is the U.S. government's official web portal to all federal, state and local government web resources and services.